Location: Houston
(29.7631°N, 95.3631°W)
Time: 11:38:31
(UTC-05:00)

UNISAT 6 - Pass Details

Date: 24 September 2021
Orbit: 606 x 687 km, 97.7° (Epoch: 24 October)

Event Time Altitude Azimuth Distance (km) Brightness Sun altitude
Rises 19:27:31 0° 29° (NNE) 3,055 ? -3.5°
Reaches altitude 10° 19:30:12 10° 43° (NE) 2,131 ? -4.1°
Maximum altitude 19:33:53 23° 96° (E) 1,431 ? -4.9°
Drops below altitude 10° 19:37:31 10° 148° (SSE) 2,098 ? -5.7°
Sets 19:40:07 0° 163° (SSE) 2,995 ? -6.3°
